EDV1455 KLGA-KDCA

Flight info

Callsign EDV1455
Flight time 0h 40m
Altitude 28000
Route BIGGY Q75 MXE CLIPR3
Aircraft CRJ9/M-SDFGIRWY/S

Departure

Time 2026-05-06 20:42
Airport LaGuardia Airport (KLGA)

Arrival

Time 2026-05-06 21:22
Airport Ronald Reagan Washington National Airport (KDCA)
Time Latitude Longitude Altitude Speed Heading
2026-05-06 20:42 40.64992 -74.01352 12394 ft 250 kts 244°
2026-05-06 20:42 40.64205 -74.03462 12908 ft 266 kts 244°
2026-05-06 20:42 40.63363 -74.05727 13342 ft 283 kts 244°
2026-05-06 20:43 40.62478 -74.08103 13893 ft 292 kts 244°
2026-05-06 20:43 40.61572 -74.10525 14566 ft 297 kts 244°
2026-05-06 20:43 40.60657 -74.12979 15222 ft 301 kts 244°
2026-05-06 20:43 40.59730 -74.15467 15887 ft 305 kts 244°
2026-05-06 20:44 40.58787 -74.17985 16533 ft 309 kts 244°
2026-05-06 20:44 40.57865 -74.20457 17141 ft 313 kts 245°
2026-05-06 20:44 40.56893 -74.23044 17753 ft 317 kts 245°
2026-05-06 20:44 40.55913 -74.25660 18337 ft 321 kts 245°
2026-05-06 20:45 40.54925 -74.28291 18969 ft 321 kts 245°
2026-05-06 20:45 40.53930 -74.30921 19570 ft 322 kts 245°
2026-05-06 20:45 40.52935 -74.33560 20160 ft 322 kts 246°
2026-05-06 20:45 40.51938 -74.36204 20765 ft 323 kts 246°
2026-05-06 20:46 40.50949 -74.38815 21379 ft 322 kts 247°
2026-05-06 20:46 40.49952 -74.41451 21897 ft 322 kts 247°
2026-05-06 20:46 40.48952 -74.44092 22383 ft 324 kts 248°
2026-05-06 20:46 40.47954 -74.46737 22880 ft 324 kts 248°
2026-05-06 20:47 40.46947 -74.49401 23366 ft 325 kts 248°
2026-05-06 20:47 40.45951 -74.52029 23759 ft 327 kts 248°
2026-05-06 20:47 40.44941 -74.54706 24129 ft 328 kts 248°
2026-05-06 20:47 40.43922 -74.57391 24500 ft 329 kts 248°
2026-05-06 20:48 40.42917 -74.60040 24881 ft 330 kts 248°
2026-05-06 20:48 40.41885 -74.62765 25044 ft 339 kts 248°
2026-05-06 20:48 40.40820 -74.65574 25083 ft 349 kts 248°
2026-05-06 20:48 40.39721 -74.68469 25159 ft 358 kts 248°
2026-05-06 20:49 40.38608 -74.71400 25485 ft 360 kts 248°
2026-05-06 20:49 40.37482 -74.74345 25837 ft 361 kts 248°
2026-05-06 20:49 40.36423 -74.77120 26145 ft 363 kts 248°
2026-05-06 20:49 40.35491 -74.79566 26415 ft 364 kts 248°
2026-05-06 20:50 40.34352 -74.82541 26753 ft 365 kts 248°
2026-05-06 20:50 40.33208 -74.85525 26960 ft 368 kts 248°
2026-05-06 20:50 40.32060 -74.88520 27251 ft 368 kts 248°
2026-05-06 20:50 40.30912 -74.91524 27502 ft 369 kts 248°
2026-05-06 20:51 40.29757 -74.94538 27685 ft 372 kts 248°
2026-05-06 20:51 40.28585 -74.97587 27768 ft 377 kts 248°
2026-05-06 20:51 40.27401 -75.00673 27810 ft 382 kts 248°
2026-05-06 20:51 40.26196 -75.03806 27829 ft 388 kts 248°
2026-05-06 20:52 40.24982 -75.06961 27871 ft 386 kts 248°
2026-05-06 20:52 40.23782 -75.10057 27841 ft 377 kts 248°
2026-05-06 20:52 40.22585 -75.13061 27822 ft 371 kts 244°
2026-05-06 20:52 40.21130 -75.15829 27832 ft 367 kts 240°
2026-05-06 20:53 40.19601 -75.18481 27834 ft 362 kts 239°
2026-05-06 20:53 40.18088 -75.21081 27831 ft 359 kts 240°
2026-05-06 20:53 40.16569 -75.23692 27822 ft 362 kts 240°
2026-05-06 20:53 40.15038 -75.26329 27840 ft 366 kts 239°
2026-05-06 20:54 40.13496 -75.28985 27847 ft 370 kts 239°
2026-05-06 20:54 40.11941 -75.31681 27853 ft 373 kts 240°
2026-05-06 20:54 40.10397 -75.34434 27854 ft 377 kts 240°
2026-05-06 20:54 40.08841 -75.37209 27797 ft 382 kts 240°
2026-05-06 20:55 40.07286 -75.40038 27447 ft 384 kts 241°
2026-05-06 20:55 40.05758 -75.42812 27087 ft 368 kts 241°
2026-05-06 20:55 40.04271 -75.45443 26680 ft 354 kts 240°
2026-05-06 20:55 40.02817 -75.47976 26265 ft 345 kts 240°
2026-05-06 20:56 40.01379 -75.50478 25867 ft 345 kts 240°
2026-05-06 20:56 39.99938 -75.52985 25472 ft 345 kts 240°
2026-05-06 20:56 39.98502 -75.55482 25088 ft 344 kts 240°
2026-05-06 20:56 39.97065 -75.57965 24765 ft 343 kts 240°
2026-05-06 20:57 39.95631 -75.60443 24472 ft 342 kts 240°
2026-05-06 20:57 39.94200 -75.62920 24165 ft 341 kts 240°
2026-05-06 20:57 39.92795 -75.65354 23856 ft 340 kts 240°
2026-05-06 20:57 39.91385 -75.67823 23543 ft 339 kts 240°
2026-05-06 20:58 39.90011 -75.70313 23188 ft 338 kts 242°
2026-05-06 20:58 39.88698 -75.72840 22815 ft 337 kts 243°
2026-05-06 20:58 39.87397 -75.75373 22443 ft 336 kts 242°
2026-05-06 20:58 39.86086 -75.77900 22077 ft 337 kts 242°
2026-05-06 20:59 39.84770 -75.80420 21738 ft 337 kts 242°
2026-05-06 20:59 39.83452 -75.82944 21378 ft 338 kts 242°
2026-05-06 20:59 39.82136 -75.85479 21024 ft 339 kts 241°
2026-05-06 20:59 39.80812 -75.88021 20677 ft 340 kts 241°
2026-05-06 21:00 39.79481 -75.90565 20340 ft 341 kts 241°
2026-05-06 21:00 39.78150 -75.93125 20037 ft 342 kts 241°
2026-05-06 21:00 39.76825 -75.95704 19742 ft 344 kts 240°
2026-05-06 21:00 39.75500 -75.98281 19381 ft 342 kts 240°
2026-05-06 21:01 39.74182 -76.00843 19042 ft 340 kts 240°
2026-05-06 21:01 39.72857 -76.03389 18700 ft 340 kts 240°
2026-05-06 21:01 39.71528 -76.05927 18372 ft 339 kts 239°
2026-05-06 21:01 39.70203 -76.08456 18013 ft 339 kts 239°
2026-05-06 21:02 39.68872 -76.10987 17629 ft 339 kts 239°
2026-05-06 21:02 39.67544 -76.13507 17262 ft 338 kts 239°
2026-05-06 21:02 39.66211 -76.16022 16909 ft 338 kts 239°
2026-05-06 21:02 39.64886 -76.18534 16524 ft 337 kts 239°
2026-05-06 21:03 39.63565 -76.21043 16134 ft 336 kts 239°
2026-05-06 21:03 39.62244 -76.23542 15792 ft 336 kts 239°
2026-05-06 21:03 39.60922 -76.26034 15437 ft 335 kts 239°
2026-05-06 21:03 39.59607 -76.28520 15071 ft 334 kts 238°
2026-05-06 21:04 39.57985 -76.30703 14686 ft 340 kts 224°
2026-05-06 21:04 39.56084 -76.32536 14329 ft 341 kts 220°
2026-05-06 21:04 39.54105 -76.34222 13967 ft 341 kts 218°
2026-05-06 21:04 39.52107 -76.35872 13624 ft 339 kts 218°
2026-05-06 21:05 39.50066 -76.37406 13193 ft 344 kts 208°
2026-05-06 21:05 39.47686 -76.38040 12803 ft 352 kts 196°
2026-05-06 21:05 39.45475 -76.39103 12410 ft 332 kts 219°
2026-05-06 21:05 39.43662 -76.40908 12025 ft 328 kts 223°
2026-05-06 21:06 39.41912 -76.42798 11645 ft 326 kts 224°
2026-05-06 21:06 39.40201 -76.44711 11282 ft 323 kts 225°
2026-05-06 21:06 39.38541 -76.46592 10935 ft 313 kts 225°
2026-05-06 21:06 39.36962 -76.48410 10776 ft 291 kts 225°
2026-05-06 21:07 39.35481 -76.50039 10679 ft 271 kts 223°
2026-05-06 21:07 39.34007 -76.51491 10651 ft 262 kts 221°
2026-05-06 21:07 39.32532 -76.52813 10668 ft 256 kts 220°
2026-05-06 21:07 39.31046 -76.54102 10642 ft 259 kts 219°
2026-05-06 21:08 39.29539 -76.55392 10619 ft 260 kts 219°
2026-05-06 21:08 39.28032 -76.56704 10630 ft 262 kts 219°
2026-05-06 21:08 39.26507 -76.58015 10570 ft 264 kts 219°
2026-05-06 21:08 39.24981 -76.59343 10476 ft 265 kts 219°
2026-05-06 21:09 39.23445 -76.60677 10399 ft 267 kts 219°
2026-05-06 21:09 39.21901 -76.62015 10336 ft 268 kts 219°
2026-05-06 21:09 39.20353 -76.63357 10270 ft 269 kts 219°
2026-05-06 21:09 39.18799 -76.64708 10196 ft 270 kts 219°
2026-05-06 21:10 39.17254 -76.66081 10118 ft 269 kts 221°
2026-05-06 21:10 39.15816 -76.67572 9983 ft 271 kts 225°
2026-05-06 21:10 39.14384 -76.69229 9740 ft 276 kts 227°
2026-05-06 21:10 39.12990 -76.70924 9452 ft 282 kts 226°
2026-05-06 21:11 39.11541 -76.72709 9162 ft 284 kts 227°
2026-05-06 21:11 39.10129 -76.74430 8688 ft 283 kts 227°
2026-05-06 21:11 39.08715 -76.76132 8307 ft 275 kts 227°
2026-05-06 21:11 39.07327 -76.77776 7861 ft 267 kts 226°
2026-05-06 21:12 39.05961 -76.79348 7347 ft 261 kts 226°
2026-05-06 21:12 39.04617 -76.80883 6843 ft 257 kts 226°
2026-05-06 21:12 39.03288 -76.82428 6421 ft 257 kts 227°
2026-05-06 21:12 39.01989 -76.83949 6235 ft 248 kts 227°
2026-05-06 21:13 39.00748 -76.85411 6124 ft 236 kts 228°
2026-05-06 21:13 38.99582 -76.86809 6074 ft 223 kts 228°
2026-05-06 21:13 38.98485 -76.88131 6041 ft 210 kts 228°
2026-05-06 21:13 38.97532 -76.89534 5649 ft 208 kts 249°
2026-05-06 21:14 38.97312 -76.91356 5352 ft 209 kts 267°
2026-05-06 21:14 38.97288 -76.93238 5065 ft 213 kts 270°
2026-05-06 21:14 38.97335 -76.95157 4671 ft 217 kts 272°
2026-05-06 21:14 38.97442 -76.97117 4240 ft 221 kts 272°
2026-05-06 21:15 38.97536 -76.99103 3814 ft 222 kts 271°
2026-05-06 21:15 38.97615 -77.01074 3396 ft 218 kts 271°
2026-05-06 21:15 38.98030 -77.02875 3174 ft 212 kts 302°
2026-05-06 21:15 38.98972 -77.04300 3098 ft 209 kts 307°
2026-05-06 21:16 38.99990 -77.05656 3077 ft 213 kts 311°
2026-05-06 21:16 39.01087 -77.06966 3076 ft 216 kts 311°
2026-05-06 21:16 39.02194 -77.08284 3051 ft 218 kts 312°
2026-05-06 21:16 39.03325 -77.09600 3034 ft 219 kts 310°
2026-05-06 21:17 39.04060 -77.11213 3028 ft 206 kts 272°
2026-05-06 21:17 39.03706 -77.12908 3052 ft 199 kts 234°
2026-05-06 21:17 39.02852 -77.14307 3079 ft 200 kts 232°
2026-05-06 21:17 39.01966 -77.15690 3063 ft 201 kts 231°
2026-05-06 21:18 39.01056 -77.17063 3081 ft 203 kts 231°
2026-05-06 21:18 39.00121 -77.18424 3047 ft 204 kts 229°
2026-05-06 21:18 38.98924 -77.19361 3007 ft 210 kts 191°
2026-05-06 21:18 38.97498 -77.18894 3039 ft 224 kts 148°
2026-05-06 21:19 38.96566 -77.17254 3088 ft 234 kts 117°
2026-05-06 21:19 38.95968 -77.15334 3071 ft 227 kts 118°
2026-05-06 21:19 38.95219 -77.13623 2913 ft 217 kts 139°
2026-05-06 21:19 38.94058 -77.12396 2573 ft 217 kts 149°
2026-05-06 21:20 38.92832 -77.11327 2288 ft 208 kts 158°
2026-05-06 21:20 38.91989 -77.10753 2037 ft 205 kts 152°
2026-05-06 21:20 38.90653 -77.09064 1512 ft 186 kts 130°
2026-05-06 21:20 38.90261 -77.08117 1380 ft 182 kts 120°
2026-05-06 21:21 38.89818 -77.06755 1319 ft 157 kts 123°
2026-05-06 21:21 38.89247 -77.05543 949 ft 153 kts 132°
2026-05-06 21:21 38.88531 -77.04595 625 ft 143 kts 142°
2026-05-06 21:21 38.87666 -77.04036 330 ft 136 kts 169°
2026-05-06 21:22 38.86729 -77.03932 152 ft 132 kts 178°
2026-05-06 21:22 38.85850 -77.03843 27 ft 117 kts 178°
2026-05-06 21:22 38.85200 -77.03782 21 ft 70 kts 176°
2026-05-06 21:22 38.84923 -77.03776 21 ft 15 kts 205°
2026-05-06 21:23 38.84887 -77.03824 21 ft 2 kts 261°